UAL2922 KIAH-KBTR

Flight info

Callsign UAL2922
Flight time 0h 40m
Altitude 25000
Route GUMBY3 LCH
Aircraft B738/M-SDE2E3FGHIRWXY/LB1

Departure

Time 2026-05-05 00:22
Airport George Bush Intercontinental Airport (KIAH)

Arrival

Time 2026-05-05 01:02
Airport Baton Rouge Metropolitan Airport (KBTR)
Time Latitude Longitude Altitude Speed Heading
2026-05-05 00:00 29.98438 -95.33470 106 ft 0 kts 327°
2026-05-05 00:08 29.98435 -95.33468 106 ft 2 kts 326°
2026-05-05 00:08 29.98422 -95.33456 106 ft 2 kts 315°
2026-05-05 00:09 29.98412 -95.33441 105 ft 2 kts 296°
2026-05-05 00:09 29.98407 -95.33423 106 ft 2 kts 262°
2026-05-05 00:09 29.98414 -95.33406 105 ft 2 kts 218°
2026-05-05 00:09 29.98423 -95.33399 106 ft 1 kts 192°
2026-05-05 00:10 29.98425 -95.33399 106 ft 0 kts 189°
2026-05-05 00:12 29.98411 -95.33400 103 ft 7 kts 180°
2026-05-05 00:12 29.98361 -95.33398 106 ft 7 kts 179°
2026-05-05 00:13 29.98310 -95.33411 106 ft 9 kts 224°
2026-05-05 00:13 29.98300 -95.33496 106 ft 14 kts 271°
2026-05-05 00:13 29.98306 -95.33614 106 ft 15 kts 276°
2026-05-05 00:13 29.98316 -95.33731 106 ft 14 kts 273°
2026-05-05 00:14 29.98317 -95.33842 106 ft 14 kts 270°
2026-05-05 00:14 29.98317 -95.33949 106 ft 13 kts 272°
2026-05-05 00:14 29.98347 -95.34044 106 ft 13 kts 301°
2026-05-05 00:14 29.98375 -95.34138 106 ft 12 kts 271°
2026-05-05 00:15 29.98375 -95.34237 106 ft 12 kts 270°
2026-05-05 00:15 29.98376 -95.34332 106 ft 12 kts 270°
2026-05-05 00:15 29.98370 -95.34425 106 ft 12 kts 244°
2026-05-05 00:15 29.98330 -95.34505 106 ft 11 kts 248°
2026-05-05 00:16 29.98324 -95.34594 106 ft 11 kts 269°
2026-05-05 00:16 29.98324 -95.34681 106 ft 11 kts 270°
2026-05-05 00:16 29.98324 -95.34766 106 ft 10 kts 270°
2026-05-05 00:16 29.98324 -95.34848 106 ft 10 kts 269°
2026-05-05 00:17 29.98323 -95.34928 106 ft 10 kts 269°
2026-05-05 00:17 29.98323 -95.35006 106 ft 10 kts 269°
2026-05-05 00:17 29.98323 -95.35083 106 ft 10 kts 271°
2026-05-05 00:17 29.98316 -95.35174 106 ft 12 kts 251°
2026-05-05 00:18 29.98300 -95.35262 104 ft 12 kts 296°
2026-05-05 00:18 29.98365 -95.35313 106 ft 11 kts 331°
2026-05-05 00:18 29.98433 -95.35356 104 ft 11 kts 332°
2026-05-05 00:18 29.98500 -95.35396 106 ft 11 kts 333°
2026-05-05 00:19 29.98566 -95.35435 106 ft 10 kts 332°
2026-05-05 00:19 29.98628 -95.35474 105 ft 10 kts 331°
2026-05-05 00:19 29.98689 -95.35513 106 ft 10 kts 331°
2026-05-05 00:19 29.98749 -95.35548 106 ft 10 kts 334°
2026-05-05 00:20 29.98807 -95.35583 106 ft 9 kts 333°
2026-05-05 00:20 29.98838 -95.35641 106 ft 9 kts 265°
2026-05-05 00:20 29.98816 -95.35708 107 ft 9 kts 245°
2026-05-05 00:20 29.98784 -95.35766 106 ft 9 kts 211°
2026-05-05 00:21 29.98728 -95.35750 108 ft 8 kts 150°
2026-05-05 00:21 29.98600 -95.35672 107 ft 48 kts 152°
2026-05-05 00:21 29.98116 -95.35375 106 ft 107 kts 152°
2026-05-05 00:21 29.97319 -95.34886 127 ft 149 kts 152°
2026-05-05 00:22 29.97024 -95.34699 268 ft 149 kts 151°
2026-05-05 00:22 29.96111 -95.34008 766 ft 158 kts 136°
2026-05-05 00:22 29.95586 -95.32931 1386 ft 157 kts 115°
2026-05-05 00:22 29.95215 -95.31751 2031 ft 158 kts 118°
2026-05-05 00:23 29.94827 -95.30612 2907 ft 152 kts 117°
2026-05-05 00:23 29.94515 -95.29309 3279 ft 187 kts 109°
2026-05-05 00:23 29.94217 -95.27719 3559 ft 217 kts 107°
2026-05-05 00:23 29.93893 -95.25919 3839 ft 240 kts 105°
2026-05-05 00:24 29.93626 -95.23952 3949 ft 255 kts 95°
2026-05-05 00:24 29.93650 -95.21845 4085 ft 275 kts 90°
2026-05-05 00:24 29.93731 -95.19593 4712 ft 286 kts 90°
2026-05-05 00:24 29.93796 -95.17269 4978 ft 293 kts 90°
2026-05-05 00:25 29.93844 -95.14926 4986 ft 291 kts 91°
2026-05-05 00:25 29.93882 -95.12611 4984 ft 287 kts 90°
2026-05-05 00:25 29.93916 -95.10315 4995 ft 286 kts 91°
2026-05-05 00:25 29.93949 -95.08024 5025 ft 287 kts 91°
2026-05-05 00:26 29.94054 -95.05694 5440 ft 295 kts 86°
2026-05-05 00:26 29.94231 -95.03342 6415 ft 295 kts 85°
2026-05-05 00:26 29.94422 -95.00970 7215 ft 299 kts 84°
2026-05-05 00:26 29.94616 -94.98572 8040 ft 302 kts 84°
2026-05-05 00:27 29.94809 -94.96141 8854 ft 306 kts 84°
2026-05-05 00:27 29.95001 -94.93689 9704 ft 309 kts 84°
2026-05-05 00:27 29.95192 -94.91201 10402 ft 317 kts 83°
2026-05-05 00:27 29.95394 -94.88571 10613 ft 342 kts 83°
2026-05-05 00:28 29.95609 -94.85741 10806 ft 366 kts 83°
2026-05-05 00:28 29.95834 -94.82748 11158 ft 381 kts 83°
2026-05-05 00:28 29.96062 -94.79675 11757 ft 387 kts 83°
2026-05-05 00:28 29.96290 -94.76573 12463 ft 390 kts 83°
2026-05-05 00:29 29.96519 -94.73439 13143 ft 394 kts 83°
2026-05-05 00:29 29.96751 -94.70267 13780 ft 399 kts 83°
2026-05-05 00:29 29.96986 -94.67058 14354 ft 404 kts 83°
2026-05-05 00:29 29.97223 -94.63810 14898 ft 409 kts 82°
2026-05-05 00:30 29.97462 -94.60521 15459 ft 414 kts 82°
2026-05-05 00:30 29.97702 -94.57196 15997 ft 419 kts 82°
2026-05-05 00:30 29.97942 -94.53875 16526 ft 424 kts 82°
2026-05-05 00:30 29.98190 -94.50424 17066 ft 428 kts 82°
2026-05-05 00:31 29.98433 -94.47026 17574 ft 433 kts 82°
2026-05-05 00:31 29.98681 -94.43546 18080 ft 438 kts 82°
2026-05-05 00:31 29.98931 -94.40026 18539 ft 442 kts 82°
2026-05-05 00:31 29.99182 -94.36476 18973 ft 446 kts 82°
2026-05-05 00:32 29.99435 -94.32890 19403 ft 450 kts 82°
2026-05-05 00:32 29.99705 -94.29276 19832 ft 454 kts 80°
2026-05-05 00:32 30.00095 -94.25654 20258 ft 457 kts 78°
2026-05-05 00:32 30.00558 -94.22018 20686 ft 460 kts 77°
2026-05-05 00:33 30.01039 -94.18354 21105 ft 464 kts 77°
2026-05-05 00:33 30.01513 -94.14656 21518 ft 468 kts 77°
2026-05-05 00:33 30.01975 -94.10922 21918 ft 472 kts 77°
2026-05-05 00:33 30.02429 -94.07152 22322 ft 476 kts 77°
2026-05-05 00:34 30.02882 -94.03351 22711 ft 480 kts 77°
2026-05-05 00:34 30.03342 -93.99521 23102 ft 483 kts 76°
2026-05-05 00:34 30.03817 -93.95671 23484 ft 487 kts 76°
2026-05-05 00:34 30.04303 -93.91792 23830 ft 490 kts 76°
2026-05-05 00:35 30.04627 -93.89210 24070 ft 491 kts 76°
2026-05-05 00:35 30.05107 -93.85351 24687 ft 483 kts 75°
2026-05-05 00:35 30.05581 -93.81515 24941 ft 482 kts 75°
2026-05-05 00:35 30.06061 -93.77654 24983 ft 490 kts 75°
2026-05-05 00:36 30.06549 -93.73733 24994 ft 497 kts 75°
2026-05-05 00:36 30.07038 -93.69770 24990 ft 498 kts 75°
2026-05-05 00:36 30.07520 -93.65821 24980 ft 496 kts 75°
2026-05-05 00:36 30.07998 -93.61879 24981 ft 495 kts 75°
2026-05-05 00:37 30.08475 -93.57947 24985 ft 494 kts 75°
2026-05-05 00:37 30.08951 -93.54019 24984 ft 494 kts 75°
2026-05-05 00:37 30.09426 -93.50095 24983 ft 493 kts 75°
2026-05-05 00:37 30.09901 -93.46173 24981 ft 493 kts 75°
2026-05-05 00:38 30.10374 -93.42252 24981 ft 493 kts 75°
2026-05-05 00:38 30.10846 -93.38332 24985 ft 493 kts 75°
2026-05-05 00:38 30.11317 -93.34408 24985 ft 493 kts 75°
2026-05-05 00:38 30.11787 -93.30480 24985 ft 494 kts 75°
2026-05-05 00:39 30.12256 -93.26551 24992 ft 494 kts 75°
2026-05-05 00:39 30.12725 -93.22613 24990 ft 495 kts 75°
2026-05-05 00:39 30.13192 -93.18673 24992 ft 495 kts 75°
2026-05-05 00:39 30.13659 -93.14735 24989 ft 495 kts 75°
2026-05-05 00:40 30.14127 -93.10788 24993 ft 495 kts 75°
2026-05-05 00:40 30.14713 -93.06882 24989 ft 492 kts 71°
2026-05-05 00:40 30.15440 -93.03032 24997 ft 490 kts 69°
2026-05-05 00:40 30.16232 -92.99205 24999 ft 490 kts 69°
2026-05-05 00:41 30.17039 -92.95382 24998 ft 490 kts 69°
2026-05-05 00:41 30.17837 -92.91560 25000 ft 490 kts 69°
2026-05-05 00:41 30.18620 -92.87725 25001 ft 490 kts 69°
2026-05-05 00:41 30.19388 -92.83879 25004 ft 491 kts 70°
2026-05-05 00:42 30.20144 -92.80035 25009 ft 491 kts 70°
2026-05-05 00:42 30.20893 -92.76184 25011 ft 491 kts 70°
2026-05-05 00:42 30.21639 -92.72330 25012 ft 491 kts 70°
2026-05-05 00:42 30.22384 -92.68475 25012 ft 491 kts 70°
2026-05-05 00:43 30.23125 -92.64629 25003 ft 485 kts 70°
2026-05-05 00:43 30.23843 -92.60874 24991 ft 473 kts 70°
2026-05-05 00:43 30.24551 -92.57177 25006 ft 469 kts 70°
2026-05-05 00:43 30.25258 -92.53506 25014 ft 468 kts 70°
2026-05-05 00:44 30.25970 -92.49824 24900 ft 470 kts 70°
2026-05-05 00:44 30.26682 -92.46140 24511 ft 468 kts 70°
2026-05-05 00:44 30.27385 -92.42477 24079 ft 465 kts 70°
2026-05-05 00:44 30.28081 -92.38837 23620 ft 462 kts 70°
2026-05-05 00:45 30.28775 -92.35210 23071 ft 460 kts 71°
2026-05-05 00:45 30.29452 -92.31656 22575 ft 457 kts 71°
2026-05-05 00:45 30.30133 -92.28082 22093 ft 453 kts 71°
2026-05-05 00:45 30.30806 -92.24537 21625 ft 449 kts 71°
2026-05-05 00:46 30.31473 -92.21026 21154 ft 445 kts 72°
2026-05-05 00:46 30.32134 -92.17538 20695 ft 442 kts 72°
2026-05-05 00:46 30.32789 -92.14081 20239 ft 438 kts 72°
2026-05-05 00:46 30.33437 -92.10653 19791 ft 435 kts 72°
2026-05-05 00:47 30.34081 -92.07247 19337 ft 431 kts 73°
2026-05-05 00:47 30.34718 -92.03866 18891 ft 428 kts 73°
2026-05-05 00:47 30.35351 -92.00508 18428 ft 426 kts 73°
2026-05-05 00:47 30.35978 -91.97170 17929 ft 423 kts 73°
2026-05-05 00:48 30.36600 -91.93858 17452 ft 419 kts 73°
2026-05-05 00:48 30.37214 -91.90580 16987 ft 415 kts 73°
2026-05-05 00:48 30.37821 -91.87331 16531 ft 411 kts 74°
2026-05-05 00:48 30.38422 -91.84113 16095 ft 407 kts 74°
2026-05-05 00:49 30.39016 -91.80930 15665 ft 403 kts 74°
2026-05-05 00:49 30.39605 -91.77772 15228 ft 399 kts 74°
2026-05-05 00:49 30.40187 -91.74642 14801 ft 396 kts 74°
2026-05-05 00:49 30.40763 -91.71543 14379 ft 392 kts 75°
2026-05-05 00:50 30.41335 -91.68465 13958 ft 389 kts 75°
2026-05-05 00:50 30.41901 -91.65411 13492 ft 386 kts 75°
2026-05-05 00:50 30.42461 -91.62383 13032 ft 383 kts 75°
2026-05-05 00:50 30.43017 -91.59378 12592 ft 380 kts 74°
2026-05-05 00:51 30.43831 -91.56507 12161 ft 372 kts 63°
2026-05-05 00:51 30.44886 -91.53797 11758 ft 367 kts 61°
2026-05-05 00:51 30.45975 -91.51136 11356 ft 364 kts 60°
2026-05-05 00:51 30.47030 -91.48481 10961 ft 362 kts 63°
2026-05-05 00:52 30.47997 -91.45805 10656 ft 356 kts 64°
2026-05-05 00:52 30.48917 -91.43187 10530 ft 345 kts 64°
2026-05-05 00:52 30.49792 -91.40662 10405 ft 329 kts 64°
2026-05-05 00:52 30.50681 -91.38294 10259 ft 310 kts 53°
2026-05-05 00:53 30.51992 -91.36422 10135 ft 290 kts 41°
2026-05-05 00:53 30.53349 -91.34804 10006 ft 278 kts 40°
2026-05-05 00:53 30.54713 -91.33214 9566 ft 279 kts 39°
2026-05-05 00:53 30.56091 -91.31630 9119 ft 279 kts 39°
2026-05-05 00:54 30.57476 -91.30053 8675 ft 279 kts 39°
2026-05-05 00:54 30.58868 -91.28486 8237 ft 279 kts 39°
2026-05-05 00:54 30.60266 -91.26926 7805 ft 279 kts 39°
2026-05-05 00:54 30.61673 -91.25378 7374 ft 279 kts 39°
2026-05-05 00:55 30.63090 -91.23842 6959 ft 279 kts 39°
2026-05-05 00:55 30.64517 -91.22312 6537 ft 279 kts 39°
2026-05-05 00:55 30.65954 -91.20793 6088 ft 280 kts 40°
2026-05-05 00:55 30.67403 -91.19288 5644 ft 279 kts 44°
2026-05-05 00:56 30.68721 -91.17628 5198 ft 279 kts 49°
2026-05-05 00:56 30.70011 -91.15942 4769 ft 281 kts 49°
2026-05-05 00:56 30.71328 -91.14242 4333 ft 285 kts 49°
2026-05-05 00:56 30.72585 -91.12449 3857 ft 288 kts 64°
2026-05-05 00:57 30.73009 -91.10225 3454 ft 283 kts 97°
2026-05-05 00:57 30.72340 -91.08141 3189 ft 273 kts 129°
2026-05-05 00:57 30.71040 -91.06606 3045 ft 264 kts 149°
2026-05-05 00:57 30.69401 -91.05816 3021 ft 249 kts 163°
2026-05-05 00:58 30.67795 -91.05217 2980 ft 233 kts 164°
2026-05-05 00:58 30.66321 -91.04668 2978 ft 212 kts 164°
2026-05-05 00:58 30.64979 -91.04172 2933 ft 195 kts 166°
2026-05-05 00:58 30.63668 -91.04278 2642 ft 190 kts 205°
2026-05-05 00:59 30.62518 -91.05044 2362 ft 189 kts 214°
2026-05-05 00:59 30.61479 -91.05952 2107 ft 184 kts 217°
2026-05-05 00:59 30.60515 -91.06890 1853 ft 178 kts 221°
2026-05-05 00:59 30.59650 -91.07829 1660 ft 161 kts 223°
2026-05-05 01:00 30.58855 -91.08703 1421 ft 151 kts 222°
2026-05-05 01:00 30.58089 -91.09550 1219 ft 153 kts 223°
2026-05-05 01:00 30.57329 -91.10386 1028 ft 150 kts 224°
2026-05-05 01:00 30.56576 -91.11214 821 ft 151 kts 222°
2026-05-05 01:01 30.55813 -91.12056 637 ft 151 kts 223°
2026-05-05 01:01 30.55041 -91.12907 461 ft 156 kts 223°
2026-05-05 01:01 30.54256 -91.13778 177 ft 155 kts 220°
2026-05-05 01:01 30.53514 -91.14585 84 ft 134 kts 223°
2026-05-05 01:02 30.53091 -91.15050 71 ft 50 kts 223°
2026-05-05 01:02 30.52946 -91.15224 69 ft 22 kts 244°
2026-05-05 01:02 30.52923 -91.15341 77 ft 12 kts 266°
2026-05-05 01:02 30.52957 -91.15426 74 ft 14 kts 335°